Content
SEND FEEDBACK

Daily
Averages
Monthly
Summary
Australia

COROWA, NEW SOUTH WALES


Home > Oceania > Australia > New South Wales
Elevation: 469 feet     Latitude: 35 59S     Longitude: 146 21E

WEATHER
 
SELECT A DAY
Number of Records: 185,587;   Date Range: 2/21/03 - 9/30/14
 
SHARE

PRINT THIS DATA

[ ← Previous Day ]
WEATHER ALMANAC - FEBRUARY 13, 2013
[ Next Day → ]
[ °C ]   °F
Weather ElementAverageHighLow
Temperature76.6 °F90 °F (6:00 pm)60.8 °F (7:00 am)
Dewpoint48.9 °F53.6 °F (1:00 am)41 °F (3:00 pm)
Humidity39.2 %72 % (7:00 am)11 % (3:00 pm)
Barometer30.07 in30.15 in (8:00 am)29.98 in (5:00 pm)
Wind Speed6.7 mph13.8 mph (9:00 am)
Weather ElementAverage
Wind DirectionESE (107.3 °)

Weather ElementTotal
Precipitation---
Cooling Degree Days10.4 (Base 65)
Growing Degree Days25.4 (Base 50)
Averaged from 31 records on February 13, 2013
WEATHER CONDITIONS BREAKOUT
WIND DIRECTION BREAKOUT
WEATHER BY HOUR - FEBRUARY 13, 2013
[ °C ]   °F
Local TimeTemperatureDewpointHumidityBarometerVisibilityWind DirectionWind SpeedGust SpeedPrecipitationEventsConditions
12:00 AM71.6 °F51.8 °F50 %30.04 inSouth (180°)4.6 mph
1:00 AM69.8 °F53.6 °F56 %30.04 inSSE (150°)3.5 mph
2:00 AM69.8 °F53.6 °F56 %30.04 inSE (130°)3.5 mph
3:00 AM66.0 °F53.0 °F52 %30.04 inCalm
3:00 AM66.2 °F51.8 °F60 %30.04 inCalm
4:00 AM62.6 °F51.8 °F68 %30.06 inCalm
5:00 AM64.4 °F51.8 °F64 %30.06 inCalm
6:00 AM62.6 °F51.8 °F68 %30.09 inNNW (330°)5.8 mph
6:00 AM62.0 °F52.0 °F62 %30.09 inNNW (330°)5.8 mph
7:00 AM60.8 °F51.8 °F72 %30.12 inCalm
8:00 AM69.8 °F51.8 °F53 %30.15 inNorth (10°)11.5 mph
9:00 AM71.0 °F50.0 °F36 %30.15 inNorth (10°)13.8 mph
9:00 AM71.6 °F50.0 °F46 %30.15 inNorth (10°)13.8 mph
10:00 AM75.2 °F50.0 °F41 %30.15 inNorth (10°)10.4 mph
11:00 AM78.8 °F50.0 °F36 %30.15 inNNE (20°)11.5 mph
12:00 PM82.4 °F48.2 °F30 %30.12 inNorth (10°)10.4 mph
12:00 PM82.0 °F49.0 °F21 %30.13 inNorth (10°)10.4 mph
1:00 PM84.2 °F44.6 °F25 %30.12 inNNE (20°)12.7 mph
2:00 PM87.8 °F44.6 °F22 %30.09 inNNE (20°)9.2 mph
3:00 PM88.0 °F42.0 °F11 %30.05 inNorth (10°)9.2 mph
3:00 PM87.8 °F41.0 °F19 %30.06 inNorth (10°)9.2 mph
4:00 PM89.6 °F42.8 °F20 %30.04 inNorth (350°)9.2 mph
5:00 PM89.6 °F44.6 °F21 %29.98 inNorth (10°)9.2 mph
6:00 PM89.6 °F46.4 °F22 %29.98 inNorth (350°)5.8 mph
6:00 PM90.0 °F46.0 °F13 %29.98 inNorth (350°)5.8 mph
7:00 PM89.6 °F46.4 °F22 %29.98 inNNE (20°)4.6 mph
8:00 PM86.0 °F46.4 °F25 %30.01 inNorth (360°)4.6 mph
9:00 PM77.0 °F48.0 °F26 %30.01 inEast (100°)6.9 mph
9:00 PM77.0 °F48.2 °F36 %30.01 inEast (100°)6.9 mph
10:00 PM78.8 °F50.0 °F36 %30.04 inSE (130°)6.9 mph
11:00 PM73.4 °F51.8 °F47 %30.06 inSouth (190°)3.5 mph
Hourly data recorded from YWGT, located miles away from Corowa, New South Wales







STORIES FROM OUR PARTNERS